Location: Santa Barbara
(34.4500°N, 119.7700°W)
Time: 10:06:25
(UTC-07:00)

Cosmos 1892 Rocket - Visible Passes

Search period start: 27 April 2015 00:00
Search period end: 07 May 2015 00:00
Orbit: 606 x 635 km, 82.5° (Epoch: 26 April)

Date Brightness Start Highest point End Pass type
(mag) Time Alt. Az. Time Alt. Az. Time Alt. Az.
27 Apr 6.6 23:37:12 11° N 23:37:12 11° N 23:37:22 10° N visible
28 Apr 6.7 23:54:40 12° NNW 23:54:40 12° NNW 23:55:01 10° N visible
30 Apr 6.8 00:12:07 10° NNW 00:12:07 10° NNW 00:12:10 10° NNW visible
30 Apr 6.1 22:52:23 14° NNE 22:52:23 14° NNE 22:53:04 10° NNE visible
01 May 6.0 23:09:47 18° N 23:09:47 18° N 23:11:01 10° N visible
02 May 6.1 23:27:10 19° NNW 23:27:10 19° NNW 23:28:34 10° NNW visible
03 May 5.7 22:07:21 16° NE 22:07:21 16° NE 22:08:27 10° NNE visible
03 May 6.4 23:44:30 14° NW 23:44:30 14° NW 23:45:36 10° NNW visible
04 May 5.2 22:24:39 27° NNE 22:24:39 27° NNE 22:26:43 10° NNE visible
05 May 4.9 22:41:55 36° NNW 22:41:55 36° NNW 22:44:36 10° N visible
06 May 5.5 21:21:59 15° ENE 21:21:59 15° ENE 21:23:21 10° NE visible
06 May 5.4 22:59:08 28° NW 22:59:08 28° NW 23:02:06 10° NNW visible
